Regional Weather Roundup
Issued by NWS

Home | Current Version | Previous Version | Text Only | Print | Product List | Glossary On
Versions: 1 2 3 4 5 6 7 8 9 10 11 12 13 14 15 16 17 18 19 20 21 22 23 24 25 26 27 28 29 30 31 32 33 34 35 36 37 38 39 40 41 42 43 44 45 46 47 48 49 50
000
ASUS45 KBOI 270710
RWRID
WEATHER ROUNDUP FOR IDAHO
NATIONAL WEATHER SERVICE BOISE ID
100 AM MDT FRI MAR 27 2015

NOTE: "FAIR" INDICATES FEW OR NO CLOUDS BELOW 12000 FEET
WITH NO SIGNIFICANT WEATHER AND/OR OBSTRUCTIONS TO VISIBILITY

IDZ012-014-270800-
SOUTHWEST IDAHO


CITY           SKY/WX    TMP DP  RH WIND       PRES   REMARKS
BOISE          CLEAR     48  41  76 SE7       30.25F
CALDWELL       CLEAR     45  34  65 E3        30.26F
MOUNTAIN HOME  CLEAR     44  37  78 SE6       30.26S
$$

IDZ016-017-270800-
SOUTHCENTRAL IDAHO


CITY           SKY/WX    TMP DP  RH WIND       PRES   REMARKS
BURLEY         CLEAR     40  34  79 CALM      30.31S
JEROME         CLEAR     46  35  65 SE5       30.31S
TWIN FALLS     CLEAR     43  32  65 SE5       30.30F
$$

IDZ019>023-270800-
SOUTHEAST IDAHO


CITY           SKY/WX    TMP DP  RH WIND       PRES   REMARKS
IDAHO FALLS    CLEAR     42  32  67 S6        30.33S
POCATELLO      CLEAR     42  31  64 SE6       30.33F
REXBURG        CLEAR     43  32  65 S7        30.32S
$$

IDZ006-010-011-018-031-032-270800-
CENTRAL IDAHO MOUNTAINS


CITY           SKY/WX    TMP DP  RH WIND       PRES   REMARKS
MCCALL         CLEAR     35  33  92 CALM      30.30S
HAILEY         CLEAR     43  36  75 NW6       30.35S
STANLEY          N/A     32  27  81 S3        30.38S
SALMON         CLEAR     39  34  81 CALM      30.31R
CHALLIS        CLEAR     41  32  70 NE5       30.32S
$$

IDZ002-004-006-007-026-270800-
NORTHERN IDAHO


CITY           SKY/WX    TMP DP  RH WIND       PRES   REMARKS
LEWISTON       CLEAR     53  46  77 SE3       30.18S
LOWELL           N/A     45  43  93 N5        30.28S
COEUR D`ALENE  CLEAR     45  41  87 E7        30.22S
MULLAN PASS    CLEAR     41  35  79 S7        30.26F
$$


USA.gov is the U.S. government's official web portal to all federal, state and local government web resources and services.